Theta_e
357 352 354 352 351 358 351 342 317 322 318 310 312 314 313 324 326 321 319 325 320 330 331 330 331 330 328 325 325 327 328 319 321 309 307 327 343 345 347 351 354 354 354 356 358 359 360 362 363 364 363 364 362 361 362 362 361 362 361 362 362 362 361 362 362 362 362 362 363 363 363 363 363 363 363 363 363 363 363 363 363 363 363 363 364 363 362 363 363 363 363 363 364 364 364 364 363
353 352 351 350 349 351 334 339 320 316 315 311 312 317 317 325 326 319 318 323 322 327 330 330 330 331 332 330 330 328 325 329 331 329 334 340 344 345 348 354 354 353 354 356 359 360 361 363 363 363 363 363 362 361 361 361 361 361 361 362 362 362 361 361 362 363 362 362 363 363 363 362 363 363 363 363 363 363 364 364 363 363 362 363 364 365 364 364 364 363 364 364 364 364 364 364 364
349 347 346 349 352 347 341 338 314 313 308 307 311 316 325 320 319 321 325 324 326 329 330 330 331 329 328 329 325 324 317 333 334 335 334 342 339 342 350 354 354 354 355 357 359 360 360 362 364 364 363 362 362 361 360 360 360 360 361 361 361 361 361 361 362 363 363 363 363 363 363 363 362 362 363 363 363 363 365 364 363 363 364 364 364 365 365 365 364 365 364 365 363 363 364 364 364
348 346 345 344 335 346 328 325 318 312 308 310 311 319 324 321 321 326 329 325 327 329 329 328 326 331 328 323 325 330 327 329 336 335 335 339 341 346 352 354 356 355 357 358 359 360 360 363 364 363 363 363 362 361 361 361 360 362 362 361 362 361 361 362 363 363 363 363 363 363 363 363 362 361 362 363 363 364 365 363 363 363 364 363 364 366 365 365 364 365 364 365 364 364 363 363 363
344 352 356 347 336 326 326 321 319 316 309 312 309 320 325 326 326 327 325 327 328 329 329 328 326 331 331 328 330 322 325 334 336 340 339 343 348 349 352 353 353 355 356 358 359 359 361 364 363 363 363 363 362 362 362 361 360 360 361 361 361 361 361 362 362 362 362 362 362 362 362 362 363 360 362 362 362 362 363 363 362 362 362 363 365 365 364 364 364 364 364 365 365 364 363 362 362
345 357 362 351 332 339 330 318 316 315 320 322 316 319 324 326 327 325 324 326 327 328 328 327 325 325 326 329 333 327 333 326 336 339 341 342 349 351 351 353 353 354 356 357 358 359 360 364 364 364 364 364 363 363 362 362 361 360 360 360 360 361 361 362 362 362 362 361 362 362 362 362 362 361 361 361 361 362 363 362 362 361 361 362 363 362 364 364 364 364 364 364 363 363 363 362 362
342 348 343 344 338 339 318 317 317 318 324 328 323 322 325 327 329 329 322 323 326 327 330 327 330 329 324 330 334 337 340 340 337 339 345 347 349 350 351 352 354 354 356 357 359 360 361 365 364 364 364 364 364 363 363 363 362 361 361 361 361 361 361 361 360 361 361 361 361 362 361 362 362 362 360 362 362 362 361 361 361 361 362 363 363 363 364 364 363 363 363 362 363 363 362 363 363
353 341 337 327 322 325 317 320 319 322 324 330 330 327 329 329 331 328 325 321 320 322 327 329 329 327 325 334 324 335 340 341 341 345 348 348 348 350 352 353 353 354 356 357 359 361 366 364 364 363 363 363 363 363 363 363 362 361 360 360 360 361 361 360 360 360 360 360 358 360 360 360 363 363 361 361 362 362 361 361 360 361 362 363 364 364 364 363 362 362 362 362 362 364 363 362 361
352 344 341 327 317 322 316 316 320 329 330 328 330 336 335 333 331 330 327 325 324 326 326 328 329 323 324 327 327 334 336 340 344 349 348 348 348 351 353 353 352 353 356 358 359 361 362 363 363 363 363 363 363 363 363 363 362 361 361 360 360 360 360 360 361 361 360 358 358 358 358 360 362 362 359 361 362 363 363 362 362 361 362 363 363 364 363 363 363 363 363 363 361 362 361 362 361
341 339 324 323 323 314 315 316 317 323 327 331 330 334 332 333 331 332 326 322 324 326 327 330 330 324 328 324 327 332 334 342 345 345 347 348 349 352 352 353 355 355 357 358 359 360 360 365 363 363 363 363 363 363 363 362 362 360 360 360 360 361 361 361 360 360 359 356 357 357 358 359 360 361 358 358 361 362 362 362 362 361 362 363 363 364 364 363 362 363 363 364 363 362 362 363 362
328 337 335 320 314 312 311 314 320 327 329 331 332 338 337 334 331 331 332 326 327 325 326 329 326 326 327 327 329 338 341 343 342 341 346 347 350 352 354 356 357 357 357 358 359 360 359 360 364 363 363 362 362 363 362 362 361 360 360 359 360 360 360 360 360 359 358 358 358 358 359 357 358 359 359 360 361 362 363 363 362 362 363 364 363 363 363 362 363 364 363 363 362 362 362 364 364
328 327 328 315 314 314 316 317 321 324 328 330 330 336 338 331 332 331 327 322 324 324 324 329 323 329 325 326 328 336 339 340 341 343 345 348 351 354 354 355 356 358 358 358 360 359 359 359 361 362 363 362 362 363 362 362 362 361 361 360 360 360 358 359 359 358 358 359 358 358 359 359 358 359 358 359 358 361 363 362 362 363 364 364 364 363 363 363 363 363 363 362 361 361 362 362 364
330 329 323 317 317 320 321 321 321 326 323 325 330 335 340 329 329 327 329 326 325 324 324 329 330 330 322 325 333 337 336 339 342 346 348 349 349 351 353 354 356 357 358 359 358 358 358 358 359 359 360 363 363 362 362 361 361 361 361 361 360 359 360 359 360 360 359 360 358 358 358 358 359 359 358 357 354 355 358 361 361 362 363 363 363 363 363 363 363 363 364 363 361 362 361 362 362
332 330 325 316 324 321 321 319 321 321 319 327 331 337 340 332 331 331 335 327 324 324 328 331 331 330 325 329 330 332 337 342 344 347 347 349 352 350 352 354 355 356 357 357 356 356 356 357 357 357 357 357 357 360 361 361 360 361 361 360 360 359 360 360 360 360 359 360 359 359 359 360 360 360 360 357 356 357 359 362 361 362 363 362 363 363 362 363 363 364 364 364 364 362 361 363 364
334 337 327 320 317 320 323 315 318 320 320 328 331 334 335 338 335 335 332 328 326 330 332 335 332 328 320 325 325 332 339 343 345 346 347 348 351 350 351 353 354 355 356 355 355 355 355 354 354 354 356 354 354 354 354 358 361 361 361 361 360 360 359 361 361 360 360 359 360 359 360 359 359 359 358 360 360 360 360 361 361 362 362 362 363 363 362 363 363 364 364 364 364 364 363 364 364
338 334 326 316 314 313 318 320 322 321 321 329 332 335 336 337 337 331 335 335 327 332 332 326 334 327 329 328 331 337 342 344 345 346 345 346 348 348 349 351 352 353 354 354 354 355 354 352 352 352 352 352 353 353 354 355 360 360 361 361 361 360 359 360 361 360 360 359 360 359 358 357 358 357 363 357 361 361 361 359 361 361 362 362 362 363 362 362 363 364 363 363 363 363 362 362 363
341 336 319 315 312 316 320 321 321 315 326 329 334 334 331 329 338 340 346 337 326 327 329 331 328 334 331 334 338 341 343 346 346 344 344 344 345 342 344 346 349 351 353 353 354 353 352 351 350 350 352 352 353 353 353 355 358 360 358 360 360 361 360 360 360 361 360 359 359 359 359 357 354 356 357 355 361 359 361 361 361 362 361 362 363 362 362 363 364 364 363 363 362 362 362 362 361
334 323 318 315 317 317 321 322 325 332 330 331 330 334 332 328 334 339 340 337 338 328 328 331 334 335 337 339 342 343 343 343 343 342 341 341 341 341 343 345 347 347 349 351 352 350 349 349 350 351 351 352 353 355 356 356 357 357 353 356 357 357 358 360 357 356 360 355 359 357 356 357 354 355 357 361 358 360 359 361 362 362 362 362 362 363 364 363 364 365 364 363 362 360 360 356 360
324 322 319 315 320 322 327 326 329 328 329 334 334 336 335 332 333 338 331 331 328 324 326 329 330 334 337 340 341 341 341 341 341 341 340 339 340 340 341 343 345 347 347 349 349 349 349 349 350 351 351 352 353 354 355 355 353 352 352 355 358 359 358 358 356 356 354 354 356 355 357 355 355 356 356 359 360 362 359 362 361 362 362 362 362 362 362 362 363 364 363 363 364 365 359 354 355
333 325 316 316 328 329 331 332 330 332 335 334 333 334 334 333 338 342 330 326 328 321 323 327 328 329 333 337 339 339 340 339 340 340 339 339 341 341 342 343 345 347 348 348 348 351 350 349 350 351 352 352 352 352 353 352 352 352 352 353 353 354 354 355 354 354 354 354 353 353 353 355 355 355 360 361 362 356 357 362 362 362 362 362 362 361 363 364 363 364 365 367 366 361 357 357 357
330 327 319 324 331 328 331 333 333 336 336 335 336 333 330 331 335 335 328 324 321 323 328 328 328 330 333 335 337 338 338 338 339 339 339 339 341 343 344 345 346 348 350 351 352 351 352 352 352 352 353 353 352 353 353 351 352 352 351 351 352 352 351 349 351 352 353 353 353 353 354 356 355 355 354 354 354 354 352 352 353 352 351 351 359 349 352 354 355 352 353 357 354 357 357 357 357
333 333 334 332 332 328 332 334 336 335 340 336 334 329 328 335 333 333 329 322 319 325 329 331 332 332 332 333 335 338 337 337 338 338 338 339 340 341 344 345 348 349 352 349 348 350 351 353 352 352 353 353 352 351 351 356 355 351 350 351 351 352 349 348 349 351 352 353 353 355 356 354 354 353 354 354 353 353 352 351 351 350 349 349 356 351 352 351 350 351 352 353 354 356 357 357 357
325 333 333 334 333 329 332 334 335 336 334 332 330 333 336 333 331 333 331 329 332 332 333 333 333 333 334 336 336 336 336 337 337 338 338 338 340 341 344 345 345 346 349 348 348 348 350 351 351 352 352 351 351 351 353 354 351 352 351 351 350 350 349 347 348 350 351 352 354 356 353 352 351 351 352 352 351 352 351 349 349 349 348 347 353 349 352 352 352 352 351 352 353 353 354 355 356
331 326 333 333 335 330 335 333 334 334 334 332 333 333 330 331 327 335 331 337 332 332 334 333 333 334 335 334 335 335 336 336 337 339 339 339 340 343 345 345 346 348 347 348 348 349 349 348 350 351 351 350 349 352 352 351 351 352 353 356 353 356 351 348 348 350 353 353 355 356 356 351 350 350 351 351 351 352 351 349 348 351 350 349 351 353 353 351 350 350 351 350 351 352 353 354 354
331 330 335 334 336 335 336 336 335 333 334 337 337 332 331 332 328 330 329 331 331 332 333 333 333 333 334 334 334 335 335 336 337 339 340 340 344 346 346 346 346 347 346 348 349 349 348 349 350 349 351 351 351 353 351 351 351 351 354 352 350 358 351 350 351 353 352 355 355 356 356 351 350 350 349 350 350 351 349 349 350 350 350 349 351 353 352 349 348 348 349 348 348 349 349 350 350
334 334 336 335 334 335 336 335 335 336 338 339 336 332 335 337 332 328 332 329 331 332 332 332 332 331 331 333 334 334 334 336 337 338 339 340 344 344 345 346 346 346 347 348 350 350 350 351 350 350 352 352 352 352 350 350 351 351 352 353 353 355 351 353 354 352 352 352 352 353 355 351 351 350 349 349 349 348 349 349 348 349 349 350 350 348 350 348 346 347 347 346 347 346 346 347 352
338 335 336 335 337 336 336 333 334 337 338 337 332 331 333 339 329 319 332 329 331 330 330 331 331 330 331 332 333 333 334 335 337 338 338 339 342 342 344 345 346 346 348 348 349 350 353 353 352 354 353 355 352 351 350 350 352 351 353 352 354 352 353 355 353 352 352 351 352 352 353 355 352 351 350 349 349 348 348 346 348 351 350 350 349 347 348 349 348 348 347 346 345 345 345 346 348
336 335 334 335 336 336 336 332 335 338 334 336 333 330 335 334 330 322 327 329 331 328 328 329 329 329 330 331 332 332 333 335 335 336 335 337 339 341 342 344 346 347 347 347 349 352 353 353 352 353 353 353 352 351 353 351 351 351 353 352 353 354 356 353 352 353 355 352 353 352 352 353 355 350 352 352 351 349 347 347 346 346 346 347 350 348 347 348 348 348 348 348 348 347 346 347 347
334 333 327 331 333 331 335 333 337 340 333 340 339 326 323 327 322 328 327 329 329 328 327 328 329 329 330 330 331 331 332 333 334 335 336 338 340 342 342 346 347 347 348 349 350 353 352 352 351 351 352 353 349 350 351 351 351 352 352 352 354 356 355 354 353 354 354 355 355 354 356 358 356 352 351 352 354 348 349 347 347 347 345 348 351 350 349 347 347 346 346 349 349 349 349 348 349
335 333 328 325 324 325 332 336 338 336 336 341 335 311 314 322 328 331 328 328 328 326 326 327 328 329 330 329 329 329 331 331 334 334 336 338 339 340 342 346 349 348 348 350 351 351 353 353 353 351 351 350 349 351 351 350 351 352 352 352 356 353 353 352 354 354 356 355 357 357 356 356 353 352 350 349 349 348 348 346 346 345 347 349 351 349 347 348 347 347 347 350 356 358 347 345 346
325 329 327 317 317 316 331 333 335 330 337 340 337 312 314 323 329 334 328 328 326 324 325 326 327 328 328 328 327 328 329 330 331 333 336 337 338 342 344 347 347 348 349 350 350 351 353 352 352 351 351 348 352 351 351 348 351 353 350 351 351 351 353 352 353 356 355 357 357 356 355 355 353 352 351 349 348 347 347 347 347 346 347 350 349 349 349 349 347 348 351 351 353 351 349 351 349
325 317 312 318 314 317 328 335 336 324 333 341 334 313 316 322 326 335 328 327 327 323 324 325 326 327 327 326 326 326 327 329 331 334 335 336 341 343 345 345 347 348 348 349 350 351 351 352 353 350 351 349 350 352 350 349 353 351 350 354 350 351 353 352 353 355 356 355 356 355 356 357 354 352 351 349 347 347 347 347 348 347 349 351 350 349 350 349 350 351 352 354 351 350 355 350 344
322 314 312 312 316 318 322 330 336 333 326 338 331 315 320 321 327 332 329 327 326 323 324 324 325 326 325 325 326 326 326 328 331 332 333 339 342 344 345 346 346 348 349 349 350 349 349 350 351 351 351 351 351 353 350 351 352 349 350 351 350 351 351 351 352 355 356 354 354 356 356 356 352 353 352 350 348 347 348 347 350 349 351 350 348 348 348 351 349 351 350 354 354 350 351 352 347
313 317 312 318 316 317 314 326 332 333 329 325 331 322 320 323 326 329 328 327 325 323 323 324 324 325 324 325 325 325 325 326 327 328 337 340 342 344 346 349 347 347 349 350 350 348 348 349 349 351 352 352 352 352 350 350 350 350 350 350 354 349 350 351 352 354 354 355 355 356 354 355 353 351 351 350 346 348 347 349 349 349 351 349 347 348 347 349 351 350 349 352 358 354 352 352 349
310 310 311 312 319 319 317 318 325 330 326 323 329 325 327 325 326 328 327 329 325 322 323 323 323 324 324 324 325 325 324 325 326 329 339 340 342 344 346 346 346 347 348 349 349 349 348 348 349 351 350 350 351 351 351 350 350 350 350 350 349 348 348 350 351 352 353 355 356 357 355 355 354 351 351 351 348 350 348 348 348 349 351 350 347 348 348 352 354 355 355 355 359 357 354 354 351
316 315 314 314 313 315 315 323 330 331 324 322 321 320 323 325 323 326 328 328 324 323 324 323 324 324 324 324 324 324 324 324 326 334 340 341 342 344 345 346 346 346 347 348 349 349 347 348 348 350 349 350 351 351 350 348 348 349 347 347 346 348 346 350 350 351 353 354 358 359 356 352 353 351 349 351 350 349 347 348 348 350 350 348 347 347 348 349 350 354 355 362 359 358 359 354 349
320 318 316 314 315 318 322 324 326 330 326 319 321 321 321 323 325 332 331 332 323 323 323 323 323 324 324 324 324 324 323 324 325 338 340 341 342 343 345 346 346 347 348 349 349 349 349 348 348 348 350 352 350 348 347 346 345 344 345 345 343 344 345 348 350 350 353 355 358 359 359 354 351 352 350 349 350 354 348 349 347 347 349 349 348 347 350 352 356 359 361 360 360 353 352 347 347
319 316 314 313 316 313 322 323 326 330 324 319 322 322 322 323 324 328 332 328 321 323 323 322 323 323 324 324 324 324 324 326 329 336 339 341 341 343 345 345 349 345 347 348 349 350 349 349 348 349 351 351 349 347 348 347 346 345 344 343 343 343 346 346 345 350 353 356 357 359 359 354 350 351 353 350 354 348 347 349 347 346 348 347 348 350 353 366 361 355 356 352 354 355 349 348 347
318 314 312 311 313 322 325 325 327 328 325 318 320 319 320 323 325 326 331 332 332 333 331 325 323 323 323 324 324 324 324 325 329 337 339 340 341 343 344 345 346 347 347 348 350 350 350 349 349 351 351 350 349 350 349 347 348 349 346 345 345 345 347 347 347 353 355 354 357 358 360 356 353 353 354 357 357 351 350 350 346 346 346 348 350 351 359 358 358 356 357 353 351 352 356 354 348
316 314 311 309 316 315 312 322 326 327 326 317 319 319 319 325 326 327 334 334 334 337 337 336 328 323 323 324 324 323 325 326 330 336 338 340 341 342 343 343 345 347 348 348 350 350 351 351 350 351 351 351 350 354 354 349 349 349 348 347 346 346 345 349 350 353 354 354 355 360 359 359 358 356 356 359 363 351 349 348 348 346 346 349 353 356 356 357 359 356 355 358 353 346 349 346 352
317 316 314 314 316 318 318 318 323 326 325 325 321 316 314 319 320 323 329 336 335 335 332 332 333 335 334 326 325 326 326 326 330 335 337 339 340 341 342 343 346 347 347 348 349 350 351 351 352 351 351 351 352 359 355 349 352 349 348 347 349 348 347 347 347 349 351 353 356 356 357 360 361 358 360 363 365 354 352 352 348 349 351 357 363 358 357 358 358 357 356 354 352 350 347 349 348
314 319 318 318 320 319 320 321 319 317 314 321 317 305 306 316 320 322 324 328 329 334 330 329 330 331 333 327 324 327 328 329 330 335 337 339 340 341 342 344 345 346 347 349 350 351 352 352 353 352 353 353 354 358 354 352 351 347 343 342 341 341 340 343 344 345 346 350 352 355 357 360 361 359 359 361 363 358 354 358 356 358 360 359 361 359 360 357 356 355 357 355 355 358 348 346 344
309 314 320 322 322 321 319 318 318 310 307 316 322 306 302 315 317 321 323 325 325 332 331 331 331 330 332 328 325 327 327 328 330 335 339 340 341 341 342 344 345 346 348 350 351 351 352 353 353 353 354 354 355 356 357 357 352 347 343 342 342 341 340 342 345 348 348 350 353 353 355 357 359 359 359 361 360 363 360 362 361 360 359 359 368 357 351 353 356 356 361 356 357 361 350 344 346
302 317 321 324 322 319 319 319 316 312 321 321 321 317 305 306 315 322 324 323 323 326 330 331 330 330 331 331 327 327 328 328 328 334 339 341 342 342 342 344 346 348 350 351 351 352 352 353 353 354 356 356 356 358 357 357 353 347 343 343 345 341 342 342 345 347 350 352 351 353 353 355 357 359 359 359 360 362 361 359 361 361 360 359 367 356 352 356 362 363 365 361 360 358 351 348 346
312 321 323 322 322 321 321 318 315 315 314 308 315 320 306 305 313 323 324 319 321 323 326 329 330 330 330 330 328 327 328 329 329 333 339 341 342 343 344 345 347 349 350 350 352 352 353 354 355 355 356 355 357 357 356 356 356 350 346 347 346 345 344 345 347 350 348 352 350 351 352 354 356 358 360 360 359 360 364 360 359 364 361 361 369 359 358 360 362 359 359 357 356 356 358 356 349
319 324 324 324 324 323 321 315 314 313 309 304 311 316 304 303 314 318 322 320 318 321 325 328 330 331 330 330 328 328 328 328 331 336 341 341 343 344 346 347 348 349 349 352 352 353 353 354 355 355 355 355 356 356 357 355 356 354 349 348 346 346 350 348 346 345 345 349 349 350 350 352 354 357 358 358 358 358 362 361 360 361 359 363 362 354 356 361 360 359 362 360 358 356 358 359 358
324 324 323 319 316 316 316 313 312 308 301 304 313 315 310 300 311 316 316 318 321 322 325 328 330 332 332 332 328 328 328 329 331 336 341 342 344 345 346 346 347 348 349 351 351 352 353 354 355 354 355 356 357 356 356 355 355 353 350 349 347 347 348 347 344 344 345 346 347 348 350 351 354 357 358 358 358 358 358 361 361 358 360 366 364 357 356 358 361 360 361 361 360 356 354 358 356
322 316 315 313 309 313 309 308 309 298 296 306 314 314 314 300 304 316 322 326 325 324 323 326 328 331 332 332 329 328 328 329 331 337 340 341 342 343 344 345 346 347 348 350 351 351 353 354 354 353 354 356 356 356 356 355 354 354 352 350 348 349 347 347 343 344 347 345 347 347 350 351 352 355 357 356 356 358 359 359 363 361 363 360 360 361 359 357 359 361 359 357 358 358 359 358 354
314 315 312 304 298 303 299 305 299 294 295 309 316 315 309 307 310 317 322 324 326 327 327 328 329 331 333 333 331 330 329 329 332 336 338 340 340 341 342 343 345 346 347 350 351 351 352 354 354 353 353 355 355 356 356 356 353 354 354 350 351 351 348 347 345 346 348 346 347 348 349 349 350 352 354 355 355 356 359 358 357 358 358 362 360 357 356 358 359 362 362 360 357 354 358 359 351
310 310 306 300 294 294 292 296 300 298 308 314 313 316 307 313 315 320 322 325 328 329 330 331 331 331 334 335 332 331 330 330 334 337 338 339 340 341 341 342 344 346 348 350 351 351 352 354 353 353 353 355 356 355 356 355 354 355 356 353 352 353 350 349 348 348 350 349 349 349 350 349 351 351 353 353 355 356 359 359 362 361 359 362 361 359 358 358 360 359 361 358 358 357 358 357 354
300 306 309 302 301 296 290 293 292 297 300 308 315 307 303 307 310 325 326 327 328 330 332 333 333 333 335 337 333 332 330 330 334 336 337 338 339 340 341 341 344 347 348 350 351 351 352 353 353 353 353 355 355 356 356 355 354 355 357 355 354 353 352 352 351 352 351 351 351 351 351 351 351 354 354 355 357 356 358 357 363 361 359 362 364 363 364 361 364 362 363 358 359 358 356 360 357
301 303 305 299 297 303 296 300 300 301 302 304 306 304 311 312 324 328 328 328 327 330 331 332 331 332 333 334 334 332 331 331 333 335 337 338 339 339 340 342 345 348 350 350 351 352 352 352 353 353 354 355 355 357 356 356 354 356 359 356 357 356 357 354 355 358 352 353 354 352 352 352 352 355 355 355 356 356 357 357 362 360 360 361 361 360 360 360 360 357 357 360 354 368 359 358 357
299 301 297 298 305 311 305 308 312 306 300 298 308 307 312 320 321 324 326 325 325 329 330 330 330 331 331 331 333 334 331 331 332 335 337 338 339 338 340 343 345 349 350 351 351 352 352 353 353 352 354 355 355 356 356 357 356 356 359 358 357 358 356 353 353 354 353 353 354 353 352 354 354 354 355 358 355 357 357 356 359 360 360 360 360 361 361 359 358 358 358 359 357 360 358 357 360
301 295 297 304 311 313 304 296 299 295 291 295 306 304 304 306 302 321 322 323 324 326 328 329 330 330 329 330 333 334 335 333 333 334 337 338 338 339 341 344 346 348 350 351 352 353 354 354 354 353 354 354 354 356 356 357 357 357 358 358 357 358 356 354 354 355 353 353 352 355 354 354 354 355 356 360 357 357 357 364 356 359 360 360 360 360 360 360 357 356 359 357 358 359 361 361 362
300 299 305 299 293 300 301 300 292 292 292 293 299 305 305 307 305 314 317 321 322 325 327 328 328 329 328 330 334 334 335 334 333 335 336 337 337 339 341 344 347 348 351 351 353 354 355 355 355 355 354 355 355 356 356 358 358 359 359 359 358 357 357 356 355 357 353 353 352 356 355 356 356 357 359 357 357 357 357 359 355 358 360 360 359 359 359 358 356 354 357 358 357 357 356 357 358
306 305 300 301 298 296 299 300 300 298 292 294 294 300 296 310 310 317 319 322 323 325 326 327 329 330 329 331 334 333 333 333 335 334 335 337 337 340 340 343 345 347 348 351 352 353 354 355 356 356 356 356 356 355 357 356 358 360 359 358 358 357 357 355 355 354 354 353 354 357 356 356 355 357 357 358 356 357 359 358 356 359 359 360 359 360 359 358 358 355 356 361 357 357 356 356 357
298 299 294 299 301 304 304 305 303 297 294 291 291 292 298 309 320 321 320 322 324 325 326 328 330 331 332 333 334 335 333 332 335 335 338 339 338 340 340 342 344 346 348 351 351 352 354 355 356 356 355 354 355 355 357 356 357 358 358 356 357 356 356 355 355 355 354 354 356 358 356 357 357 356 356 359 356 356 359 359 359 360 360 359 358 359 359 358 357 355 355 357 358 358 358 356 357
297 297 295 296 296 300 296 294 304 305 296 290 293 291 301 314 324 324 324 324 325 327 327 327 330 332 332 333 335 334 336 336 339 341 337 337 338 340 341 342 343 344 346 348 350 352 352 354 355 356 355 354 355 355 355 356 357 357 357 356 356 357 357 355 355 355 355 354 355 356 355 356 356 356 355 357 356 357 359 358 359 359 358 359 359 357 359 359 358 356 355 359 360 357 355 356 355
Wind_Speed
6 4 3 3 2 1 2 1 2 2 4 3 3 0 1 2 1 1 3 4 5 0 3 8 8 8 4 4 9 8 12 4 2 5 6 2 6 10 8 7 9 7 6 5 3 4 5 7 10 11 10 10 10 11 10 9 9 9 10 11 11 12 12 12 13 13 14 15 14 13 13 13 14 15 15 15 15 15 14 13 13 13 13 14 14 14 14 15 14 14 14 14 15 15 15 15 14
3 3 3 3 1 1 1 1 3 2 4 5 1 0 3 1 1 2 4 5 4 5 9 10 11 11 13 14 10 10 10 8 3 5 5 7 10 7 7 10 10 9 7 4 3 4 4 6 10 11 11 11 11 11 11 11 10 10 11 11 11 11 12 13 12 13 13 14 15 13 13 13 14 14 15 15 15 14 14 14 14 13 12 12 14 13 13 15 14 14 14 13 14 14 15 15 14
3 3 3 3 1 1 1 0 2 1 5 5 1 4 2 1 1 2 2 7 13 11 11 10 9 7 7 5 8 5 2 6 10 8 8 10 12 6 8 10 9 8 7 4 4 3 3 5 9 11 12 11 10 10 10 10 10 9 10 11 10 11 12 12 13 13 13 13 14 14 13 13 14 14 14 14 14 14 14 14 13 13 12 12 13 13 13 13 14 14 14 14 14 15 15 13 13
2 3 3 3 1 1 1 1 3 3 4 3 2 1 1 1 1 3 5 14 11 9 7 5 4 6 9 11 10 15 8 5 5 11 8 8 6 10 9 11 9 7 5 5 4 4 2 7 10 10 11 11 10 10 10 10 10 10 9 9 9 10 10 12 12 12 13 14 13 14 14 13 13 13 15 14 14 13 13 14 12 11 12 11 12 12 13 13 14 13 14 14 13 14 14 12 12
1 1 1 2 0 2 2 1 2 1 4 4 6 2 1 3 2 2 8 13 11 11 12 9 9 7 8 10 3 3 6 9 8 5 7 6 9 9 11 11 9 8 6 6 4 3 4 11 9 10 10 10 10 10 10 10 9 9 9 8 9 9 10 11 10 11 12 12 13 13 14 13 13 14 14 14 15 14 14 14 11 10 9 11 10 11 13 14 14 13 13 14 13 13 14 12 11
1 0 1 2 1 1 0 2 2 1 1 2 3 0 5 7 3 8 9 10 8 9 9 7 7 6 6 6 3 7 11 8 8 7 9 10 14 13 13 11 9 7 7 5 5 4 4 10 10 10 11 11 11 11 11 10 10 9 10 8 8 9 10 11 11 11 11 11 12 13 13 14 14 13 14 14 14 14 14 14 12 12 9 10 11 11 13 14 14 14 13 13 14 14 13 13 12
2 1 2 1 1 0 2 3 2 1 1 2 2 2 5 4 5 3 10 10 12 13 11 14 15 14 12 6 10 6 6 11 8 9 8 14 14 14 14 10 9 9 8 6 5 5 7 12 12 12 12 12 12 12 12 11 11 10 9 8 8 8 9 10 10 9 5 11 11 12 13 13 14 13 15 14 13 13 14 15 14 13 12 11 12 12 12 12 14 14 13 13 14 13 13 13 12
1 1 0 2 0 2 3 2 0 0 0 1 1 1 1 1 2 2 5 13 8 10 9 8 5 13 11 4 7 9 13 4 11 12 15 13 14 15 12 10 10 9 8 6 5 5 10 12 12 11 12 12 12 11 10 10 10 9 8 8 8 8 9 9 11 10 9 10 11 8 9 12 12 13 14 14 13 12 14 14 13 13 13 12 12 12 12 13 13 13 13 13 12 12 12 12 11
2 2 1 2 3 2 3 2 1 0 1 2 0 3 4 2 3 2 6 3 10 10 11 13 12 16 6 13 9 8 8 14 13 16 15 15 16 12 9 11 10 8 8 6 5 4 6 11 11 11 11 11 11 11 9 9 8 8 8 8 8 8 9 9 9 9 9 12 11 8 12 10 11 11 11 13 13 12 13 12 12 13 13 12 12 12 12 13 13 13 13 13 12 11 11 11 11
1 0 1 2 1 4 1 1 1 1 1 2 1 2 2 1 1 4 2 4 10 14 10 5 6 16 12 13 12 9 10 15 16 15 14 16 14 12 11 10 10 10 8 5 4 4 4 10 11 11 10 9 10 9 9 8 8 7 8 9 8 7 8 10 8 8 12 14 12 12 9 9 8 10 14 9 12 12 12 13 12 13 13 12 12 11 11 12 12 12 12 11 11 11 10 10 10
1 2 1 4 4 2 2 1 1 1 2 2 2 3 2 0 4 1 2 6 10 12 11 14 16 15 12 9 5 8 15 16 15 15 15 14 13 13 11 10 9 9 8 7 5 3 3 5 12 11 10 10 10 10 9 8 8 8 8 8 8 8 9 10 10 9 10 14 13 12 13 11 8 10 8 8 10 9 12 12 12 12 13 12 11 11 11 12 12 11 11 10 11 10 9 9 9
2 2 3 4 3 0 1 0 2 2 2 1 2 3 2 7 3 1 6 12 12 13 12 8 6 14 12 11 7 11 16 15 14 14 14 13 12 12 11 8 9 8 8 8 6 4 3 3 4 9 11 11 10 10 9 9 10 9 9 8 8 10 9 10 11 10 11 14 13 13 13 13 13 11 12 11 6 7 10 12 13 13 12 12 11 10 11 11 11 10 10 9 9 10 9 9 8
1 1 2 3 0 1 0 1 2 1 2 2 4 1 2 10 7 5 3 7 12 13 5 8 17 9 12 9 7 13 15 14 13 10 9 9 10 10 10 9 9 9 9 8 7 5 5 3 3 3 7 12 11 11 11 10 10 11 10 10 9 9 11 11 11 11 12 15 14 13 13 12 11 13 13 14 11 8 9 12 13 14 12 11 11 10 10 10 10 9 9 8 8 8 8 8 8
3 4 3 0 0 0 1 0 1 0 2 2 3 0 2 4 6 5 3 7 8 7 11 14 12 10 14 12 9 9 10 15 12 11 8 9 8 10 12 9 10 9 9 8 7 5 4 3 2 2 3 4 3 7 10 10 10 10 11 10 10 10 11 12 12 12 13 15 14 14 13 12 13 14 13 17 18 14 12 11 12 12 11 11 10 10 9 9 9 8 7 7 7 7 8 7 7
2 1 2 1 0 1 1 2 4 2 4 2 2 0 4 3 2 2 4 6 4 13 12 7 10 12 11 15 11 10 13 16 13 11 10 9 10 12 12 9 9 8 7 8 6 5 4 4 4 3 3 4 4 3 2 6 10 10 10 10 10 11 12 13 13 12 14 15 15 14 12 12 10 12 14 14 14 14 14 12 12 11 10 10 9 9 9 8 7 7 6 5 6 6 6 5 6
5 3 2 2 1 2 1 2 1 1 5 5 3 3 2 2 1 3 3 2 9 12 14 10 8 1 15 8 14 16 16 17 14 12 10 9 9 11 11 10 8 8 6 7 6 3 5 5 3 3 3 4 3 2 3 2 7 10 11 11 10 12 12 13 13 12 14 15 15 15 13 8 11 10 13 11 14 12 13 9 12 11 11 10 9 8 8 7 6 5 5 4 4 5 5 5 6
2 3 1 1 2 2 2 5 4 4 4 6 7 4 3 4 3 2 1 2 16 12 7 14 5 11 9 13 17 18 17 17 16 15 12 10 7 7 7 6 7 6 6 7 5 4 4 4 3 3 2 3 3 3 2 1 5 9 8 10 12 13 12 13 13 14 13 13 13 14 12 5 2 3 5 6 12 7 10 11 11 11 9 9 8 7 7 6 5 3 3 3 3 2 3 3 4
3 1 2 2 3 3 7 6 9 3 3 5 10 3 0 6 3 2 2 2 1 11 11 9 13 10 14 16 17 18 18 18 19 18 13 10 7 7 7 6 6 6 7 7 5 5 4 3 4 3 3 4 4 3 1 1 3 5 4 3 3 6 9 10 8 6 9 6 12 8 4 3 4 4 4 6 3 5 7 12 11 10 9 7 6 6 5 4 4 2 2 1 1 1 1 2 3
4 3 3 6 4 4 10 6 10 6 5 6 9 6 1 3 5 2 3 3 7 12 11 14 14 17 17 17 18 17 17 16 17 17 15 13 10 10 8 6 6 7 7 6 5 6 4 4 3 4 4 3 4 3 3 4 4 3 3 4 4 8 8 7 6 7 4 4 4 5 4 3 4 4 3 4 3 8 7 10 11 9 8 6 5 4 3 3 3 2 2 2 2 3 3 2 2
2 1 3 3 4 3 4 6 8 9 7 8 11 7 5 3 3 1 4 0 9 14 14 14 18 18 19 19 18 17 15 16 16 16 15 13 11 11 9 9 8 7 8 7 6 5 5 5 4 3 4 3 4 4 4 4 4 3 3 3 4 4 5 5 5 5 4 4 4 4 4 3 4 4 8 10 7 3 5 9 9 8 7 6 5 4 4 3 3 5 5 5 4 3 3 3 2
2 3 1 3 3 3 4 7 7 2 2 5 9 9 6 5 7 2 8 9 9 11 15 19 20 20 19 20 18 16 17 16 16 15 15 14 12 9 10 10 9 7 7 7 6 5 5 5 5 3 2 3 4 4 4 3 3 4 3 4 4 4 4 4 4 4 4 4 4 4 3 3 4 4 4 4 4 5 5 5 4 4 4 4 4 2 2 2 3 3 3 4 3 3 4 4 3
4 1 0 1 2 2 2 9 9 10 7 5 7 10 8 4 4 3 5 8 8 12 14 18 20 20 20 19 17 17 16 16 16 15 15 15 13 10 8 6 7 7 8 7 6 6 6 5 4 3 3 3 3 4 4 4 4 3 3 3 4 4 4 4 4 4 4 4 3 3 4 5 4 5 4 3 4 5 5 4 4 3 3 2 3 2 2 2 2 2 2 3 3 4 4 4 4
4 1 3 4 3 3 3 4 8 5 7 6 6 5 2 7 3 3 2 4 3 11 18 19 19 17 16 16 17 17 16 15 14 14 13 15 13 11 10 9 9 8 7 7 7 6 6 5 4 3 3 3 3 3 2 3 3 3 2 3 4 4 4 4 4 3 3 3 3 3 5 4 5 4 4 3 4 4 4 3 3 2 2 1 2 2 2 2 2 3 3 3 4 4 4 4 4
7 2 2 4 5 6 4 8 7 2 9 8 8 5 3 5 4 1 3 2 8 15 18 17 16 16 17 17 16 16 15 15 14 13 13 13 14 13 12 11 9 8 7 8 8 7 6 6 5 4 3 3 3 3 3 3 2 2 2 4 4 5 5 4 4 3 2 3 3 4 3 4 5 4 4 4 3 3 3 2 1 2 2 2 1 2 2 3 3 4 3 4 4 4 5 5 5
8 6 4 3 6 4 6 7 7 4 4 3 4 5 6 9 6 6 4 9 17 16 17 17 16 16 15 15 16 15 14 14 14 13 10 8 13 12 10 8 9 8 9 9 8 8 7 6 7 6 4 4 3 3 4 3 2 2 1 3 4 5 4 4 4 3 3 3 3 3 3 4 4 4 4 3 3 3 2 2 1 1 1 1 2 2 1 3 3 3 4 4 4 4 4 6 5
1 6 7 5 6 5 5 6 4 1 3 3 6 5 4 3 11 5 4 15 16 16 17 18 17 15 14 15 15 14 13 14 14 14 13 10 13 13 11 10 10 10 9 8 8 7 7 8 8 7 5 4 4 3 4 4 3 2 2 2 3 5 4 4 4 4 4 4 4 3 3 3 4 4 3 2 3 2 2 1 1 0 0 0 1 2 2 2 3 4 4 4 5 5 5 5 4
8 11 8 7 4 5 4 3 2 5 2 2 4 2 3 1 7 4 5 15 19 17 17 16 17 15 13 14 14 13 13 14 15 13 11 12 13 12 11 9 10 10 10 9 7 7 8 8 7 6 6 5 3 4 4 4 4 3 2 2 4 5 5 5 4 4 4 4 4 3 3 3 3 3 3 3 2 3 2 2 0 1 1 1 2 2 1 2 2 3 3 4 4 5 6 6 4
11 13 11 7 6 6 6 3 1 1 2 5 3 2 1 3 4 6 10 15 18 17 17 16 14 13 12 14 13 10 10 12 11 12 14 14 11 11 11 9 9 10 10 9 7 7 8 9 7 7 6 5 4 4 4 4 4 3 1 4 4 4 5 5 4 4 4 4 3 3 3 2 2 2 3 3 4 4 3 2 0 0 1 2 2 2 2 2 2 3 3 4 5 4 6 6 5
11 10 8 2 3 3 3 2 3 2 1 5 4 6 4 3 8 7 13 15 17 18 17 15 13 12 12 12 12 9 10 9 10 11 13 12 11 11 12 10 11 10 7 10 9 8 9 9 8 7 6 5 5 5 4 4 3 2 3 4 4 4 5 5 5 4 4 4 3 2 2 3 3 4 3 3 3 4 3 2 0 1 1 2 2 2 2 2 2 3 4 3 4 4 4 5 4
10 8 6 5 4 2 3 3 2 3 2 5 4 7 3 1 5 5 16 14 16 16 15 14 11 11 12 11 10 9 9 9 12 10 12 12 12 12 12 11 12 10 8 7 9 9 7 6 6 5 6 6 6 4 4 4 3 2 3 4 4 4 5 5 4 4 4 4 3 2 3 4 4 4 4 3 3 3 3 2 2 1 1 2 2 2 2 2 3 3 4 3 4 4 4 2 2
5 4 4 4 6 2 2 1 2 1 2 4 2 7 4 3 2 4 13 16 17 16 14 13 11 12 11 10 8 8 8 8 10 12 14 13 11 11 12 12 11 10 8 9 10 10 8 7 6 5 6 6 6 5 5 4 3 3 4 4 4 4 4 4 4 3 4 4 4 4 4 5 3 4 3 4 3 2 3 2 1 1 2 2 2 2 2 3 2 3 4 5 5 4 1 1 3
4 5 1 1 4 0 3 2 1 1 4 3 4 5 5 5 4 5 11 14 14 14 13 12 12 12 11 7 9 8 8 8 12 14 15 13 13 12 13 13 12 11 12 11 9 9 9 8 7 6 7 7 7 6 5 5 5 4 5 5 4 3 4 4 3 4 4 4 4 5 5 5 4 3 4 3 3 2 1 1 1 1 2 2 2 2 2 3 3 4 3 2 5 4 3 3 3
1 3 4 3 3 2 0 2 3 7 4 2 1 5 2 2 4 4 9 12 14 13 13 11 13 13 9 8 9 8 8 10 13 13 12 13 12 12 12 13 12 13 12 12 10 9 9 10 9 9 9 8 7 7 6 4 3 5 5 5 5 4 4 4 3 4 4 4 5 5 5 5 4 3 3 2 3 2 1 1 0 1 1 1 2 3 3 3 2 4 6 4 4 3 3 2 5
0 3 3 2 6 5 1 1 1 3 3 2 1 3 4 2 4 6 7 11 12 13 12 13 13 11 7 9 9 10 8 9 12 10 14 14 11 13 12 12 12 12 12 12 10 10 10 9 9 9 8 8 7 7 6 5 4 4 4 5 4 4 4 4 4 4 4 4 5 5 5 5 4 4 3 2 2 3 1 0 1 1 1 1 3 3 4 3 2 2 5 6 2 3 3 3 4
6 3 5 1 2 5 4 5 2 4 4 4 1 2 0 1 4 4 6 9 11 11 12 14 13 10 8 9 9 9 8 8 10 8 17 15 15 12 12 12 11 11 10 11 9 9 9 8 8 8 7 7 6 6 5 5 4 4 3 4 4 4 3 4 4 5 5 5 5 6 6 5 3 4 4 3 2 3 2 1 2 1 1 2 2 3 3 3 3 3 4 5 4 3 3 3 3
10 11 8 8 7 5 5 1 4 4 2 3 6 1 2 2 5 2 3 8 8 9 11 12 11 11 9 8 9 8 7 8 7 12 15 14 11 12 11 11 11 10 10 9 9 9 9 9 8 6 7 7 6 5 5 5 4 5 5 3 3 3 3 3 3 4 4 5 5 6 5 5 4 3 2 3 4 4 4 2 1 1 1 1 2 2 3 3 4 3 3 3 4 4 2 2 1
9 7 8 9 6 4 4 5 5 6 3 8 4 7 11 3 3 3 1 1 6 7 9 12 12 11 10 9 10 8 7 8 5 15 14 14 14 12 11 11 10 9 9 10 9 9 9 9 9 9 7 7 7 7 7 6 6 5 3 5 5 4 4 3 3 2 3 4 4 5 6 6 4 3 2 2 3 4 3 2 1 1 1 2 2 2 3 5 4 3 2 1 1 3 3 3 2
10 8 8 7 5 8 5 6 5 4 4 4 5 7 5 8 12 12 6 2 6 7 9 11 13 12 9 11 12 10 8 5 9 13 14 14 13 13 11 10 11 11 8 9 9 9 8 9 9 8 7 7 7 7 6 5 4 5 6 6 4 4 3 4 3 2 3 3 4 4 5 5 5 4 3 2 3 3 3 2 1 2 2 2 2 3 4 5 1 3 2 3 1 1 1 1 2
10 8 5 7 2 6 6 5 5 5 4 4 3 5 6 8 7 9 5 1 0 2 2 8 13 11 8 12 11 10 7 6 10 14 16 14 15 14 11 11 11 12 11 9 8 8 9 8 8 7 7 7 6 5 5 3 2 3 5 5 6 4 3 4 4 3 3 3 2 3 4 4 3 3 4 3 3 3 2 1 0 2 4 3 3 4 4 2 2 3 3 2 4 2 1 1 2
6 5 6 7 8 8 4 2 7 4 1 5 6 8 3 3 5 7 2 0 0 1 2 1 4 12 9 13 11 10 9 9 13 15 16 15 14 12 11 11 10 10 9 8 8 9 7 7 7 7 7 6 6 5 4 4 4 4 3 6 6 6 4 3 3 3 3 3 2 2 3 4 3 3 3 4 4 5 6 3 2 4 6 7 5 4 2 3 2 2 3 3 1 2 3 2 2
7 10 8 7 10 8 4 9 7 6 5 7 8 5 2 3 5 6 3 1 1 2 3 1 0 2 3 11 9 10 12 11 14 14 15 15 14 13 13 11 11 11 10 9 9 9 7 9 8 8 7 7 6 5 5 5 5 3 3 4 4 5 5 5 3 2 3 3 3 3 4 3 4 4 4 3 7 8 8 7 8 7 6 6 3 1 2 3 1 1 1 2 2 1 3 2 3
8 12 13 13 15 10 11 15 12 5 3 5 12 3 5 6 9 10 4 1 2 0 1 2 2 2 4 9 9 9 13 11 14 16 15 15 14 13 12 12 12 10 10 9 9 9 8 8 8 7 6 6 6 5 6 6 5 5 5 5 6 4 5 6 6 6 4 4 5 3 3 3 3 1 1 1 2 7 6 4 5 6 4 0 2 2 2 0 0 1 1 1 3 1 2 4 3
10 8 10 12 14 12 17 15 9 6 7 10 7 9 2 3 10 10 5 4 4 2 1 4 3 1 3 7 5 9 13 10 12 15 15 14 13 14 13 13 12 12 10 9 9 8 9 8 8 8 7 6 5 5 6 5 5 5 6 7 6 6 7 5 5 4 5 3 2 2 3 2 1 2 1 0 0 2 2 1 1 0 1 1 1 1 0 0 0 1 1 1 2 2 1 3 2
5 7 13 14 12 16 17 16 9 3 4 6 3 2 4 4 9 9 6 5 5 4 5 4 5 2 4 4 6 9 13 12 11 16 16 15 15 16 15 13 12 12 11 10 9 8 9 9 8 8 6 6 5 5 6 6 6 6 7 6 5 6 7 7 7 6 5 3 3 3 2 2 2 2 0 0 0 0 0 0 1 0 1 1 0 1 1 1 1 1 0 0 1 0 1 4 2
5 11 19 18 17 14 14 10 6 5 8 6 7 2 1 2 3 5 6 7 7 9 9 8 7 4 5 4 7 10 13 12 13 15 16 16 15 15 15 13 12 13 12 11 10 9 9 8 8 7 6 5 5 5 6 6 6 7 8 7 6 6 6 7 6 6 6 5 5 3 3 4 3 2 1 2 1 1 1 1 1 1 1 2 1 2 2 2 1 1 0 0 1 1 1 1 2
3 14 13 9 8 9 13 7 8 4 3 7 10 8 3 2 2 7 5 8 12 13 12 10 9 7 6 5 6 10 11 10 12 17 17 16 15 15 15 14 13 12 11 11 10 9 9 7 8 8 6 6 5 6 6 5 6 6 7 6 7 6 5 6 6 6 6 5 6 5 5 5 4 2 3 3 3 3 3 3 3 3 3 3 3 3 2 2 2 1 0 1 1 1 1 2 2
9 12 14 12 10 8 7 4 3 4 0 4 10 11 5 1 6 11 13 16 19 12 8 7 8 7 5 5 7 10 11 10 10 15 16 16 15 15 14 14 13 12 10 11 10 10 9 9 9 9 7 6 6 6 5 6 5 5 6 6 7 7 5 6 6 5 6 5 7 6 5 6 4 4 4 3 4 3 3 3 3 3 2 3 2 3 3 2 3 2 1 1 0 1 2 3 2
15 6 10 11 8 9 10 6 8 2 3 3 9 12 7 2 2 7 11 3 6 12 14 13 11 10 7 6 5 9 11 10 11 14 15 15 13 14 14 14 14 13 11 11 10 10 10 9 8 9 7 7 7 6 5 6 5 5 5 6 6 6 6 6 7 7 7 7 7 6 6 5 4 4 4 4 4 4 4 4 3 1 3 3 3 3 3 3 2 1 1 1 0 1 1 2 2
11 9 7 11 1 4 3 2 2 2 2 2 2 9 1 8 5 5 13 8 7 12 12 14 14 12 10 7 7 8 9 11 12 13 14 14 15 14 14 14 14 13 12 12 12 11 10 10 10 10 8 8 8 7 7 6 6 5 6 7 6 5 5 5 6 6 6 7 7 6 6 6 5 4 5 5 5 5 4 4 3 3 3 3 3 3 3 3 3 1 0 1 1 1 2 1 2
10 10 7 9 4 2 3 3 1 3 4 2 1 7 4 2 5 6 11 15 12 13 13 13 14 15 11 8 6 7 8 10 12 14 14 14 14 14 14 14 14 13 13 13 13 11 10 10 10 10 10 8 7 7 7 6 6 5 5 6 7 6 6 6 5 6 6 7 7 7 7 6 6 6 5 6 6 5 4 5 4 4 4 4 4 3 3 3 3 2 1 0 1 1 1 2 2
5 6 11 8 8 6 5 4 6 6 4 1 2 5 5 4 4 4 2 7 10 10 12 13 12 13 11 6 5 7 8 7 11 12 14 14 14 15 13 13 13 13 14 13 12 12 11 10 10 11 9 9 8 8 7 7 6 5 4 6 6 6 7 6 6 5 6 6 6 6 6 6 6 6 6 6 5 5 5 5 4 4 5 4 4 3 2 2 1 1 2 1 0 1 1 2 3
1 3 5 6 8 5 6 6 7 5 3 3 1 4 2 4 1 3 4 3 9 10 9 9 12 11 12 7 6 4 8 9 11 12 13 14 13 14 12 12 13 13 14 12 13 12 12 11 11 11 11 10 9 8 7 7 7 6 5 6 6 7 5 5 5 4 5 5 6 6 6 6 6 5 5 6 6 6 6 6 4 4 4 4 3 3 3 3 2 2 1 0 2 1 1 2 2
2 2 3 6 4 10 5 3 1 4 4 3 4 3 3 2 2 6 5 5 7 11 11 11 12 13 14 11 7 4 6 8 10 13 13 12 13 12 13 14 13 14 13 13 13 13 13 12 11 11 10 9 9 8 7 7 7 6 6 6 5 6 7 7 7 6 6 5 5 5 6 6 5 5 4 4 5 5 6 6 5 5 4 4 3 3 3 3 3 3 2 1 2 1 1 1 2
2 1 2 1 2 6 7 4 1 2 2 1 3 3 2 2 2 3 4 5 3 9 12 13 13 13 15 12 9 5 3 4 6 14 13 14 13 12 13 14 15 15 15 14 14 13 12 12 13 12 11 11 10 9 8 7 7 7 6 6 6 6 7 7 6 7 6 6 4 4 4 5 6 5 5 4 4 5 6 6 5 4 4 3 4 3 3 3 3 3 3 3 3 1 0 1 1
5 3 2 1 2 0 2 6 1 1 1 1 2 0 2 5 5 2 4 6 6 7 9 11 12 13 14 13 10 5 5 7 3 4 12 13 11 11 13 15 16 16 15 14 14 13 11 11 12 12 13 12 11 9 7 6 7 6 6 7 7 6 5 6 6 5 5 6 6 6 6 7 6 6 6 4 4 5 5 5 5 4 4 4 4 4 3 3 3 4 3 3 2 2 2 3 2
1 1 4 1 5 3 2 4 4 6 2 1 2 1 3 5 4 9 10 10 11 11 10 13 14 14 13 13 10 7 7 7 3 3 7 12 12 14 14 16 16 16 14 14 14 12 14 13 12 11 10 9 9 9 8 8 7 7 7 5 5 5 5 5 6 6 6 7 6 6 6 6 7 6 5 5 5 5 5 6 5 5 4 4 4 4 4 3 3 4 3 3 2 2 3 3 3
1 2 2 1 0 2 5 1 4 4 5 3 2 1 4 5 3 4 9 9 8 9 9 8 9 11 11 11 9 7 11 12 5 1 4 2 10 14 14 15 15 14 13 13 13 14 13 12 12 12 12 11 11 10 9 7 7 6 7 7 6 5 6 5 6 6 6 7 6 6 6 6 4 5 5 4 5 5 6 6 6 4 5 4 4 4 4 3 3 4 3 3 2 3 4 4 3
6 7 5 5 2 2 4 3 1 3 5 2 3 3 4 5 2 5 7 8 9 9 11 9 9 9 9 5 6 3 5 8 5 2 5 4 11 6 15 13 13 13 13 14 13 12 12 12 12 12 11 10 10 10 9 8 7 7 7 7 7 6 6 5 7 6 7 6 6 7 6 5 6 6 6 6 5 5 5 6 5 5 4 5 5 4 4 3 4 4 4 3 3 2 3 4 3
Wind_Direction
164 155 175 180 111 197 212 210 58 327 63 74 118 44 225 201 254 327 91 70 87 13 117 118 151 154 170 145 121 104 40 127 351 141 186 162 129 138 155 148 135 140 142 153 155 138 139 146 143 138 138 136 138 136 137 134 133 128 124 121 118 121 123 126 122 120 120 117 115 117 116 113 118 121 123 122 123 123 121 116 111 106 103 105 105 104 105 105 103 97 98 100 99 100 98 98 97
151 166 183 130 131 152 343 297 103 12 47 84 10 115 252 262 250 138 91 100 91 100 92 98 91 89 99 116 145 95 18 28 29 119 71 116 120 134 156 146 148 148 150 152 147 142 156 161 148 141 141 145 146 143 142 141 138 135 131 128 129 130 133 130 124 121 119 116 117 118 116 117 120 123 123 125 125 123 120 117 113 107 104 104 108 109 109 107 105 105 100 100 101 100 98 95 93
150 181 202 105 319 223 217 347 78 73 92 89 273 199 329 326 139 137 144 93 106 105 97 95 97 88 97 113 53 55 94 24 82 77 95 127 121 174 170 147 148 147 150 151 158 160 163 167 147 141 142 145 144 140 139 137 135 132 128 130 138 139 136 125 122 120 123 122 118 119 120 122 124 125 124 125 123 120 119 118 110 111 111 114 111 111 111 108 106 105 105 103 104 101 96 92 93
157 203 190 154 334 215 45 23 83 111 100 174 121 289 40 323 212 172 135 112 118 110 103 80 50 305 110 69 100 87 79 59 57 122 126 151 158 158 158 146 138 140 149 155 156 160 160 152 147 144 144 145 148 143 138 137 137 134 136 143 147 141 127 119 121 120 121 123 124 121 121 124 128 128 124 120 115 115 114 111 109 113 114 111 112 111 110 111 108 107 107 107 104 102 97 95 97
160 285 108 160 24 356 74 108 136 97 120 191 148 271 271 239 250 136 92 100 102 102 97 107 92 64 90 110 134 102 136 101 90 67 118 124 135 152 143 140 141 151 151 147 148 138 145 150 147 147 144 144 144 141 137 137 141 142 146 155 149 133 122 119 121 121 120 123 126 124 122 125 131 130 123 121 121 117 117 117 117 107 108 116 114 114 113 112 112 112 110 107 106 103 103 102 105
58 55 292 93 157 221 38 52 25 73 230 121 117 259 358 358 321 108 104 98 99 98 104 82 104 126 71 32 37 107 139 127 138 108 130 140 148 144 140 143 149 141 134 139 144 139 147 151 152 151 148 149 145 139 141 143 150 152 152 151 138 128 125 124 126 123 119 125 129 130 128 130 131 127 124 123 121 123 125 120 120 118 118 113 119 117 112 113 113 111 109 106 104 103 101 100 100
173 78 355 39 43 78 118 105 146 155 303 133 56 38 27 19 300 328 108 91 76 78 84 101 109 102 78 92 87 91 82 117 127 138 141 143 142 139 144 146 131 129 135 143 144 148 159 158 154 149 144 142 141 143 147 148 150 149 145 139 133 124 122 115 117 108 112 128 128 133 133 129 132 130 124 125 127 127 126 124 130 132 132 136 128 119 116 113 111 109 107 106 104 101 102 102 103
234 229 273 105 6 55 30 59 82 144 338 106 91 78 39 100 311 45 59 111 123 110 117 120 80 89 90 101 97 105 130 126 118 130 132 140 138 143 143 128 129 135 139 141 149 157 156 149 144 139 137 139 142 144 145 148 145 140 137 134 129 119 112 113 120 124 121 113 114 108 113 120 126 131 128 125 122 128 125 127 129 130 128 129 125 120 117 113 110 107 106 104 104 105 100 100 95
345 90 262 62 37 21 43 51 280 313 325 62 345 215 101 65 355 36 6 91 99 104 105 113 126 87 116 108 100 137 109 115 122 130 140 137 142 137 127 135 136 136 137 141 149 161 147 147 138 135 138 142 143 143 143 141 139 132 129 130 127 123 116 114 121 123 114 104 108 120 128 130 120 124 116 123 128 130 125 124 126 126 121 124 121 117 116 115 110 108 107 109 113 106 102 97 102
1 61 356 103 144 46 46 336 37 278 17 68 64 64 51 285 60 80 6 105 113 112 113 119 106 107 124 100 108 114 124 125 131 137 140 144 137 127 130 135 133 134 134 136 141 141 155 140 138 138 142 142 139 138 138 137 134 130 124 124 122 128 121 116 118 128 125 131 141 137 119 116 113 110 126 140 131 132 128 127 127 127 123 122 118 117 116 113 111 108 109 111 116 115 108 102 102
354 24 191 62 35 55 50 271 306 337 4 355 35 93 75 279 49 10 301 121 111 106 105 110 90 114 113 97 82 114 125 131 139 143 140 141 126 126 127 129 129 129 135 136 128 121 123 133 139 140 141 141 138 137 140 134 130 128 123 125 133 128 125 126 126 138 139 124 124 121 126 130 126 118 107 119 123 133 131 130 127 124 123 121 121 122 122 113 110 110 113 115 115 116 119 106 93
6 337 23 78 56 100 279 319 323 326 337 337 80 54 57 93 350 20 102 112 113 116 132 127 123 122 99 114 121 132 135 140 142 140 145 127 126 127 128 130 129 132 131 134 129 109 106 119 130 143 145 144 142 142 140 138 137 137 136 140 135 128 139 132 133 139 136 120 121 127 130 135 137 133 144 139 134 129 125 126 126 124 124 126 128 126 116 112 110 111 113 117 120 127 123 110 105
157 213 62 80 250 138 289 350 325 326 356 272 123 111 162 139 174 206 288 125 126 129 105 110 125 127 118 124 137 140 144 140 135 118 92 101 125 127 129 132 133 131 128 132 132 128 116 115 119 143 148 144 140 142 138 138 140 138 138 135 139 144 140 139 137 135 130 122 128 134 139 141 139 140 143 131 130 147 144 134 127 123 123 124 120 115 110 108 109 111 116 121 125 125 120 121 118
137 194 119 81 6 111 104 254 350 30 268 218 58 2 14 133 199 157 149 128 139 113 122 126 125 126 111 128 143 142 126 130 118 105 101 106 119 128 130 132 131 129 134 136 132 126 126 112 93 57 69 97 105 124 127 133 132 133 136 138 143 145 140 136 136 133 134 132 138 142 144 142 138 143 146 147 154 149 139 123 120 119 120 120 116 114 111 109 112 114 122 128 129 129 130 128 131
193 198 82 130 99 33 232 130 225 178 257 136 112 247 111 272 181 169 158 121 113 125 120 130 128 131 157 151 150 145 139 130 121 117 115 116 120 132 133 132 128 129 134 136 129 130 106 94 87 77 84 79 71 68 76 133 132 137 136 141 145 141 135 135 135 135 135 136 134 133 135 141 139 138 152 137 129 136 133 131 123 119 117 115 113 111 110 113 117 122 122 131 124 119 122 137 133
163 114 83 109 212 163 341 336 1 297 263 102 179 167 136 98 162 152 223 203 130 132 151 125 174 37 146 131 134 136 135 131 129 125 122 129 134 133 135 134 136 139 134 128 130 106 101 98 85 83 80 80 81 64 64 91 142 137 137 138 140 133 136 132 134 137 137 132 133 134 137 145 146 148 136 129 122 130 133 129 120 116 114 111 113 113 115 119 119 121 125 116 114 118 135 151 150
96 80 73 75 241 163 205 164 129 237 265 103 159 188 188 180 253 212 129 330 143 158 140 147 135 123 126 128 131 134 134 134 137 136 136 141 145 131 127 132 135 135 134 130 127 108 106 110 106 104 104 107 105 105 106 166 133 125 130 134 137 136 138 132 131 132 129 131 134 136 134 133 89 95 107 113 133 142 125 124 120 113 111 110 101 108 120 118 113 107 97 89 98 115 151 148 149
102 169 136 223 199 144 201 192 188 172 167 146 146 224 182 146 207 206 134 72 130 139 132 118 113 108 115 123 126 130 135 145 145 145 149 147 142 131 132 137 138 139 140 141 130 123 124 125 136 142 143 133 126 123 124 76 79 70 49 68 90 109 117 111 115 107 113 121 128 117 109 113 95 91 95 103 102 122 122 124 122 115 106 101 112 108 101 108 95 67 34 15 4 88 69 26 353
138 187 152 232 189 229 181 201 193 144 207 155 128 158 221 228 163 249 131 141 144 132 126 129 114 116 122 131 132 139 150 146 142 144 146 144 145 144 145 147 143 136 138 138 140 145 146 146 154 158 150 145 122 103 91 93 89 78 61 60 86 99 104 97 84 100 91 99 94 99 90 79 89 89 86 109 109 120 126 125 121 111 107 108 112 95 78 87 34 6 336 312 298 336 7 338 323
307 169 220 243 223 140 183 182 198 199 157 163 130 130 220 211 228 136 135 40 160 140 140 130 131 135 140 140 144 152 147 142 141 145 147 146 147 148 150 153 148 147 141 147 148 148 153 156 167 165 161 148 116 110 97 102 104 102 93 80 86 85 74 81 88 101 98 95 92 92 89 78 92 101 118 116 100 63 106 121 122 124 123 124 114 44 21 358 355 343 336 340 1 351 328 312 307
250 76 170 251 261 171 187 208 185 113 294 159 113 111 147 297 284 172 162 105 144 144 149 142 143 144 143 147 150 144 143 143 145 148 150 150 150 154 159 159 153 143 141 133 139 144 152 156 161 176 138 129 126 122 120 116 107 102 103 99 96 84 87 81 89 95 99 97 95 87 81 82 75 76 69 70 67 80 71 60 55 52 48 32 46 24 17 349 8 342 335 347 346 331 322 304 308
104 128 206 301 311 86 292 215 147 168 187 124 86 124 164 208 260 27 140 128 165 153 145 139 140 144 147 148 140 140 145 146 150 154 157 155 156 156 152 142 135 130 132 136 143 143 151 152 149 148 133 127 124 124 134 145 115 113 116 120 98 91 102 98 92 92 93 97 96 93 90 86 80 89 88 81 82 86 72 68 65 53 42 34 20 2 348 3 333 327 339 336 321 313 299 295 290
94 61 54 11 18 90 39 153 145 168 126 122 89 142 303 197 169 207 142 136 191 142 139 141 141 140 137 134 137 141 145 150 156 161 160 153 155 155 150 148 146 146 144 140 144 146 146 148 149 146 139 130 126 130 109 95 117 124 123 128 113 116 106 104 99 93 91 95 93 101 102 94 98 97 98 90 81 75 75 72 82 71 73 32 11 354 334 335 329 327 328 319 303 302 296 290 287
112 131 115 59 66 80 68 96 134 292 127 137 152 100 260 130 162 166 203 226 145 137 137 137 136 131 133 136 142 143 149 157 163 165 165 159 151 152 152 150 150 140 139 142 151 151 153 152 157 153 148 155 154 134 114 127 137 127 163 144 122 132 116 111 120 121 98 102 117 114 99 98 107 103 99 101 92 83 90 81 69 68 45 35 345 329 330 328 331 326 315 309 313 305 302 299 297
102 110 143 126 91 89 75 78 67 36 32 105 99 164 235 164 180 125 261 143 135 138 135 135 136 135 135 140 145 151 157 163 164 162 162 154 141 143 145 143 143 143 144 151 148 151 158 152 157 156 161 159 155 138 133 140 143 132 117 126 145 142 118 127 136 122 116 129 130 128 120 113 107 118 123 122 99 94 105 90 64 86 51 21 337 312 322 316 315 313 313 302 301 289 284 284 285
96 137 124 106 88 87 76 87 66 234 209 202 175 197 124 191 138 158 165 132 133 135 135 137 138 142 142 145 150 157 165 167 160 164 168 143 144 142 151 151 148 148 152 147 144 145 150 155 156 157 156 160 155 141 142 147 156 157 191 153 164 131 130 131 131 126 132 136 143 136 129 134 143 141 138 137 125 119 105 103 79 37 88 330 317 289 299 294 291 302 293 298 299 302 293 277 282
125 103 92 89 85 105 65 4 172 232 160 324 140 70 81 302 160 117 114 138 135 136 138 140 144 148 147 148 158 164 168 164 166 166 157 141 148 152 154 153 154 149 146 147 147 145 151 152 148 149 151 157 153 149 152 155 156 172 196 170 127 129 133 133 132 136 143 152 158 154 142 147 145 146 156 161 130 124 131 124 48 3 333 322 311 292 271 273 273 278 302 302 296 293 289 288 283
111 111 85 72 86 78 114 180 264 343 15 355 77 85 193 14 96 157 150 142 136 138 141 146 148 150 151 155 163 169 169 170 168 157 149 146 152 155 157 158 153 148 147 149 152 148 143 144 144 154 155 155 159 157 161 157 168 175 170 130 131 130 130 133 139 145 152 160 160 166 169 163 163 154 145 139 133 129 120 101 86 301 275 293 265 252 284 278 284 276 264 262 268 267 278 286 273
130 117 95 57 63 71 20 32 317 353 13 356 313 73 36 9 148 162 146 141 139 140 146 149 151 152 155 164 167 173 173 168 159 151 146 153 155 157 159 159 150 148 148 145 149 149 144 146 150 156 153 163 163 163 163 161 160 173 132 131 139 134 128 136 145 158 157 161 159 151 170 162 144 141 132 136 126 122 125 124 212 218 251 268 281 296 299 293 285 276 272 259 263 255 258 265 261
88 53 113 100 63 33 323 340 351 60 337 353 14 132 256 310 149 151 146 144 142 140 147 153 154 157 163 170 169 176 172 165 161 155 147 154 156 159 155 153 149 147 145 143 146 148 146 143 150 148 161 162 165 160 159 163 179 166 130 134 142 134 138 143 155 151 150 150 139 134 128 125 136 133 128 104 108 112 115 126 217 241 271 293 288 311 327 325 305 302 290 303 299 305 251 235 204
96 128 52 113 118 165 316 13 342 27 307 357 33 132 218 248 209 183 151 148 145 146 151 158 157 162 169 171 167 175 172 163 160 152 152 154 153 153 151 148 149 146 141 147 153 150 149 151 152 151 166 162 162 169 169 175 183 159 136 142 149 153 151 151 151 135 137 142 126 123 117 110 110 100 98 117 107 118 134 165 186 351 324 285 310 327 307 308 299 302 319 324 310 277 335 317 255
140 88 13 340 105 172 309 292 56 141 319 16 37 120 190 201 199 174 156 150 146 147 156 160 160 165 173 158 170 162 168 151 156 154 155 149 148 150 150 150 152 148 150 152 149 149 148 152 157 156 165 166 167 174 173 177 183 163 145 150 152 158 151 153 151 150 144 129 125 113 108 104 101 107 110 118 113 87 135 152 49 348 289 310 307 298 318 313 310 305 292 270 291 315 3 343 307
285 116 161 151 102 162 41 279 116 118 250 345 58 165 152 197 235 174 159 151 148 154 161 161 163 170 168 157 164 155 145 150 150 156 147 142 150 149 150 150 154 150 150 151 152 148 151 157 157 162 171 172 168 170 172 178 181 161 154 154 158 155 158 159 166 156 142 134 131 119 115 108 107 102 105 103 114 106 177 89 190 235 256 253 308 332 311 275 313 322 309 308 245 303 329 318 332
298 50 131 170 151 144 188 329 155 117 69 299 356 132 193 223 180 170 156 156 151 158 163 159 165 172 151 159 159 150 143 159 157 155 138 147 148 150 148 149 150 149 150 152 153 152 158 156 159 168 173 171 169 170 177 179 178 157 155 150 154 162 169 171 170 157 153 148 138 132 131 126 130 121 109 118 140 145 113 96 272 249 245 354 360 321 289 305 297 281 291 282 272 347 327 333 317
182 117 107 115 102 158 152 161 247 98 166 255 342 133 193 216 126 167 159 161 157 166 159 162 165 163 147 156 158 154 145 161 173 138 147 147 148 148 144 146 147 149 152 154 153 150 151 152 156 167 164 165 164 168 175 175 162 160 154 143 158 172 178 177 173 162 162 153 152 140 139 129 129 132 144 158 151 116 103 228 226 240 30 26 333 299 316 317 299 259 243 280 327 347 292 282 256
176 171 168 151 147 188 167 120 28 81 180 141 341 1 249 188 149 129 165 163 163 169 156 160 162 162 146 157 158 156 153 169 175 140 146 143 145 147 146 146 150 152 152 153 147 144 147 148 152 151 157 158 156 162 165 167 150 160 160 136 149 190 180 177 183 169 159 154 151 144 131 127 133 147 167 139 140 137 163 189 234 39 35 12 281 303 304 301 292 300 295 329 339 319 262 240 188
165 150 134 165 144 83 78 82 134 119 103 61 46 335 327 315 15 355 330 217 164 158 154 162 164 163 154 165 161 159 159 178 152 146 140 142 150 148 144 144 147 145 147 146 142 145 148 148 146 151 154 149 151 154 161 159 155 159 154 168 181 189 183 180 173 172 159 164 149 140 139 142 152 159 155 143 145 135 132 104 15 12 326 271 256 250 267 284 259 240 298 317 313 357 328 355 57
148 151 143 167 151 161 169 155 160 138 127 167 160 160 259 322 325 327 325 108 174 160 153 165 166 165 159 164 165 163 173 169 136 138 139 144 150 147 142 142 142 141 151 148 146 147 145 146 145 147 146 146 149 153 155 153 157 167 165 178 172 171 163 162 173 187 176 159 136 135 152 148 161 166 148 167 124 122 104 92 12 331 286 289 312 294 283 254 350 11 23 354 347 18 308 344 302
157 148 155 116 89 80 55 91 143 159 126 159 90 154 201 223 263 287 328 16 74 32 137 172 163 171 152 163 171 162 158 165 134 143 143 149 148 148 145 144 148 150 153 152 145 138 143 144 145 147 146 145 154 152 143 156 163 158 149 165 159 164 176 172 165 175 162 145 144 143 145 150 169 183 162 149 128 122 103 104 279 305 296 289 258 267 253 326 22 15 2 25 331 346 292 294 290
147 111 128 183 160 155 183 210 140 157 193 147 148 161 217 286 277 271 268 227 287 343 94 357 188 172 161 166 174 158 160 165 138 148 148 149 149 148 146 146 147 145 150 147 151 146 144 144 149 148 149 149 156 162 157 170 164 168 129 145 148 149 163 149 140 138 136 132 142 150 142 163 184 208 196 177 149 143 140 176 203 229 233 225 229 243 338 356 14 355 8 2 63 16 4 315 18
193 170 177 143 164 208 164 167 134 118 43 119 118 80 342 255 257 259 250 312 41 353 19 3 356 124 164 170 171 160 159 165 143 150 150 149 151 153 153 152 148 150 156 159 159 157 155 154 154 154 155 158 165 168 164 168 161 118 103 123 115 87 74 116 113 133 169 164 142 157 194 187 194 196 205 208 131 154 169 182 189 206 221 226 217 65 20 352 350 322 317 9 32 137 24 355 333
202 206 179 178 170 154 99 137 134 143 132 211 144 116 216 214 228 231 226 308 188 55 68 277 279 134 153 176 178 169 161 166 147 152 153 153 153 152 151 152 154 154 160 165 163 159 153 156 153 152 157 164 170 175 171 163 163 144 135 143 145 136 126 145 161 172 183 169 177 189 195 210 228 239 234 239 135 155 162 192 194 203 207 344 36 29 24 18 19 308 289 20 1 330 130 60 349
176 223 196 144 154 135 137 147 133 166 189 199 205 159 205 196 211 221 221 212 225 280 206 257 266 175 201 172 183 175 165 161 148 146 150 153 153 151 156 156 157 159 163 161 161 158 156 158 158 157 163 172 176 173 164 153 147 153 163 164 164 158 151 173 162 167 168 187 152 180 220 274 285 283 303 77 22 69 97 160 120 345 1 14 11 48 338 146 243 263 317 31 338 346 74 81 39
203 193 143 149 133 148 162 158 155 103 71 87 173 100 144 190 225 215 199 202 226 239 236 234 243 211 212 192 175 188 167 165 150 149 155 156 157 156 160 160 160 162 159 159 161 158 160 163 164 163 163 170 181 167 160 152 148 162 167 163 160 159 160 166 167 171 170 163 163 188 212 252 283 289 324 16 22 52 38 342 42 6 300 308 279 210 244 245 302 319 246 248 319 76 133 105 92
202 155 151 167 163 154 153 141 128 135 122 144 194 197 66 232 254 175 169 203 231 228 217 217 227 218 214 201 180 194 170 169 150 149 158 159 160 161 158 161 162 158 160 162 164 164 162 162 164 161 163 167 175 168 161 153 143 158 161 155 157 171 154 161 169 166 166 167 170 189 188 220 224 240 196 162 196 156 214 234 264 238 245 238 189 208 241 236 198 183 29 19 358 329 55 117 93
211 158 148 126 115 136 144 131 117 143 97 175 197 188 172 280 194 161 181 215 221 215 212 209 212 209 206 203 182 189 170 169 152 149 157 161 161 162 163 158 158 163 162 159 158 160 163 163 166 166 167 169 171 169 164 154 142 144 149 159 155 169 154 156 164 169 168 166 174 182 194 198 207 198 213 176 179 194 204 224 228 229 213 204 190 202 216 199 192 197 185 192 212 22 20 52 66
128 111 103 82 61 44 7 30 81 87 10 231 195 193 186 233 207 185 167 210 205 192 202 207 205 212 209 206 178 186 170 165 154 149 157 160 161 160 159 160 161 160 159 155 159 163 164 167 170 170 173 166 167 169 165 164 154 152 153 161 160 167 166 156 168 172 172 167 174 185 184 196 187 188 185 189 181 195 211 213 218 238 214 221 203 194 209 216 238 202 210 184 174 65 8 40 48
128 117 121 94 33 35 30 347 338 76 255 268 176 188 188 182 255 209 214 71 171 187 196 195 194 199 213 202 191 183 171 162 152 149 156 156 158 160 161 160 162 163 158 157 162 163 165 168 171 170 173 170 169 168 171 175 166 167 160 165 169 178 170 167 174 174 178 176 176 181 189 177 192 180 182 185 194 197 206 220 231 202 218 197 214 202 202 228 228 212 176 123 338 16 2 40 41
97 105 97 98 67 50 35 331 276 261 216 321 178 155 97 249 228 196 208 219 179 192 196 191 187 187 203 209 191 179 174 159 152 152 156 159 161 163 165 159 161 163 164 163 164 165 166 167 172 172 179 175 172 171 177 181 177 178 171 170 174 183 182 174 180 169 176 173 176 175 175 183 188 179 191 186 207 203 205 213 221 207 205 193 189 163 196 212 162 139 28 319 3 339 341 1 15
132 152 144 104 108 118 170 214 39 313 298 1 131 159 244 259 288 200 196 208 196 189 194 189 183 182 192 203 193 176 172 162 157 157 158 162 164 166 166 158 161 164 166 164 164 165 167 171 173 177 179 178 174 177 179 177 186 185 176 176 174 176 185 178 185 175 175 174 174 176 179 182 184 193 190 196 202 204 207 209 198 203 188 185 167 181 189 196 162 150 108 156 245 288 20 12 350
156 151 164 165 158 161 170 168 177 203 209 347 110 143 229 137 244 313 237 218 198 192 187 181 182 177 179 201 221 176 169 163 160 160 161 163 165 166 164 158 161 164 167 164 165 167 168 171 175 176 175 179 178 182 179 180 183 184 179 181 172 172 176 176 182 177 170 171 178 175 183 184 182 195 192 203 204 198 208 208 199 190 181 190 169 184 190 188 181 124 135 197 284 274 7 356 346
225 157 107 147 202 154 132 191 152 160 146 115 263 211 193 176 218 295 299 197 160 168 176 171 176 173 167 187 231 203 173 164 166 161 165 164 162 164 160 160 163 163 166 166 167 167 170 174 176 176 177 177 179 182 184 185 184 181 180 180 176 173 171 167 171 178 176 171 173 179 186 190 196 191 201 200 202 194 199 200 200 194 187 185 184 176 178 182 175 171 181 190 260 288 290 332 324
260 89 170 214 200 112 113 53 53 101 70 216 185 291 307 297 9 1 18 92 135 154 165 174 177 177 171 182 199 210 182 166 168 162 166 167 164 160 159 163 164 163 166 169 169 171 172 172 174 176 175 177 180 182 182 184 184 178 185 183 172 172 173 171 174 179 183 183 172 187 187 197 200 198 207 206 197 196 193 189 192 191 195 185 185 181 176 189 185 186 195 213 250 287 151 255 308
94 74 236 245 29 104 119 142 298 72 128 254 164 235 293 49 279 346 34 83 128 158 167 175 176 178 178 181 184 192 151 174 170 168 167 170 167 160 160 165 166 167 169 168 171 172 172 172 174 173 176 178 182 181 179 180 181 183 183 180 178 177 178 182 177 180 181 184 190 190 199 199 207 210 208 213 187 193 192 190 185 186 193 189 189 203 187 193 189 204 195 205 225 191 237 292 277
142 193 198 89 285 50 342 98 88 92 280 247 300 294 265 178 230 211 193 166 172 174 171 169 177 182 184 177 177 155 101 63 57 260 170 168 168 163 161 167 167 168 169 169 169 169 168 173 174 175 179 180 180 180 179 179 179 185 184 185 181 181 177 175 181 180 182 190 194 194 197 199 203 209 208 210 182 184 182 191 187 185 189 197 199 207 198 188 185 202 203 217 234 190 213 258 272
160 285 358 206 109 158 129 211 159 112 204 70 291 65 248 212 216 189 198 191 179 172 173 180 180 183 183 178 169 140 117 74 359 256 202 171 170 166 163 164 167 168 167 167 167 167 170 172 174 176 177 175 175 181 178 179 184 182 185 182 187 183 181 180 182 175 180 192 194 193 200 193 200 197 195 190 181 175 177 184 192 186 193 197 199 215 207 195 186 207 197 211 227 187 208 231 258
108 273 327 340 315 211 119 122 134 159 163 179 167 317 274 255 201 199 208 191 191 175 174 174 177 181 179 177 154 114 124 142 223 49 348 286 179 167 165 162 165 165 165 165 168 170 171 171 174 175 173 178 178 181 177 184 179 184 175 185 187 186 189 186 189 189 187 192 193 193 194 198 193 203 191 186 188 188 179 180 181 189 191 198 202 206 216 196 193 215 217 209 228 197 209 231 237
166 169 200 179 117 107 137 248 2 93 99 187 122 233 260 264 179 216 204 187 164 175 176 175 175 172 161 118 115 113 105 130 139 29 99 76 323 207 167 159 156 164 164 168 169 167 168 171 175 175 173 179 180 180 179 179 182 182 178 186 188 187 190 184 195 192 197 197 200 197 194 192 195 205 193 191 186 188 190 181 184 189 189 196 204 204 201 190 202 211 232 218 237 225 208 222 214